CW9825 Weather Reports


time (UTC)temp
C
wind
direction
speed
KPH
gust
KPH
rain 1hr
cm
rain 24hr
cm
rain mn
cm
humidity
%
barometer
mb
20260904035531 20 5 8.0 19.3 0.00 0.00 0.00 89 1009.2
20260904035031 20 346 9.7 20.9 0.00 0.00 0.00 89 1009.1
20260904034530 20 342 9.7 22.5 0.00 0.00 0.00 89 1009.2
20260904034030 20 347 9.7 22.5 0.00 0.00 0.00 88 1009.2
20260904033533 20 5 6.4 24.1 0.00 0.00 0.00 87 1008.9
20260904033032 20 307 14.5 24.1 0.00 0.00 0.00 87 1009.3
20260904032528 20 17 6.4 16.1 0.00 0.00 0.00 86 1008.5
20260904032029 21 22 6.4 16.1 0.00 0.00 0.00 86 1008.2
20260904031529 21 338 6.4 16.1 0.00 0.00 0.00 85 1008.4
20260904031029 21 324 6.4 14.5 0.00 0.00 0.00 85 1008.3
20260904030531 21 36 4.8 12.9 0.00 0.00 0.00 84 1008.3
20260904030035 21 48 1.6 12.9 0.00 0.00 0.00 84 1008.4
20260904025527 21 339 1.6 12.9 0.00 0.00 0.00 84 1008.2
20260904025027 22 295 4.8 12.9 0.00 0.00 0.00 83 1008.1
20260904024527 22 312 3.2 12.9 0.00 0.00 0.00 84 1008.0
20260904024029 22 328 1.6 12.9 0.00 0.00 0.00 83 1008.0
20260904023530 22 328 3.2 14.5 0.00 0.00 0.00 83 1008.0
20260904023026 22 326 4.8 14.5 0.00 0.00 0.00 83 1008.0
20260904022526 22 313 4.8 8.0 0.00 0.00 0.00 83 1007.9
20260904022029 22 52 0.0 1.6 0.00 0.00 0.00 82 1007.6
20260904021530 22 52 0.0 3.2 0.00 0.00 0.00 82 1007.4
20260904021026 22 52 0.0 4.8 0.00 0.00 0.00 82 1007.4
20260904020525 22 51 1.6 6.4 0.00 0.00 0.00 82 1007.2
20260904020025 22 53 1.6 6.4 0.00 0.00 0.00 82 1007.0
20260904015530 22 93 3.2 6.4 0.00 0.00 0.00 82 1007.0
20260904015027 22 103 3.2 6.4 0.00 0.00 0.00 82 1007.0
20260904014525 22 72 3.2 6.4 0.00 0.00 0.00 82 1007.1
20260904014027 22 96 3.2 6.4 0.00 0.00 0.00 81 1007.1
20260904013524 22 102 3.2 6.4 0.00 0.00 0.00 81 1007.0
20260904013024 22 81 3.2 9.7 0.00 0.00 0.00 80 1007.0
20260904012524 22 55 4.8 9.7 0.00 0.00 0.00 80 1007.1
20260904012024 22 53 3.2 8.0 0.00 0.00 0.00 80 1007.0
20260904011525 22 59 1.6 8.0 0.00 0.00 0.00 80 1006.9
20260904011024 22 49 1.6 8.0 0.00 0.00 0.00 80 1007.0
20260904010524 22 49 1.6 9.7 0.00 0.00 0.00 79 1007.0
20260904010023 23 34 4.8 11.3 0.00 0.00 0.00 79 1007.0
20260904005523 23 56 4.8 14.5 0.00 0.00 0.00 79 1007.0
20260904005023 23 86 6.4 14.5 0.00 0.00 0.00 78 1007.1
20260904004527 23 55 6.4 17.7 0.00 0.00 0.00 78 1007.0
20260904004023 23 73 6.4 22.5 0.00 0.00 0.00 77 1006.9
20260904003522 23 51 6.4 22.5 0.00 0.00 0.00 77 1006.7
20260904003024 23 360 9.7 19.3 0.00 0.00 0.00 76 1006.8
20260904002525 23 75 8.0 19.3 0.00 0.00 0.00 76 1006.7
20260904002023 23 86 9.7 17.7 0.00 0.00 0.00 75 1006.5
20260904001523 23 90 6.4 22.5 0.00 0.00 0.00 75 1006.4
20260904001022 23 46 11.3 22.5 0.00 0.00 0.00 75 1006.4
20260904000522 23 63 8.0 24.1 0.00 0.00 0.00 75 1006.3
20260904000022 24 48 11.3 24.1 0.00 0.00 0.00 74 1006.4
20260903235521 24 50 8.0 20.9 0.00 0.00 0.00 75 1006.4
20260903235021 24 74 11.3 20.9 0.00 0.00 0.00 74 1006.3
20260903234521 24 96 8.0 22.5 0.00 0.00 0.00 73 1006.4
20260903234021 25 355 12.9 22.5 0.00 0.00 0.00 72 1006.6
20260903233521 25 43 8.0 19.3 0.00 0.00 0.00 74 1006.7
20260903233032 25 51 4.8 17.7 0.00 0.00 0.00 75 1006.7
20260903232520 24 59 9.7 27.4 0.00 0.00 0.00 74 1006.6
20260903232020 25 22 16.1 27.4 0.00 0.00 0.00 73 1006.7
20260903231535 25 35 9.7 20.9 0.00 0.00 0.00 72 1006.7
20260903231019 25 5 11.3 24.1 0.00 0.00 0.00 71 1006.4
20260903230524 25 48 12.9 29.0 0.00 0.00 0.00 71 1006.4
20260903230020 25 43 11.3 29.0 0.00 0.00 0.00 70 1006.6
20260903225519 25 50 14.5 29.0 0.00 0.00 0.00 70 1006.7
20260903225019 25 45 12.9 29.0 0.00 0.00 0.00 71 1006.7
20260903224519 25 56 6.4 17.7 0.00 0.00 0.00 72 1006.6
20260903224019 25 58 6.4 19.3 0.00 0.00 0.00 73 1006.8
20260903223521 25 360 9.7 30.6 0.00 0.00 0.00 74 1006.8
20260903223018 25 15 9.7 30.6 0.00 0.00 0.00 74 1006.9
20260903222519 25 30 14.5 27.4 0.00 0.00 0.00 73 1006.9
20260903222018 25 34 9.7 24.1 0.00 0.00 0.00 73 1006.7
20260903221518 25 44 11.3 27.4 0.00 0.00 0.00 73 1006.7
20260903221022 25 93 14.5 27.4 0.00 0.00 0.00 73 1006.7
20260903220518 25 46 11.3 27.4 0.00 0.00 0.00 74 1006.7
20260903220019 24 22 12.9 27.4 0.00 0.00 0.00 74 1006.7
20260903215517 24 331 12.9 25.7 0.00 0.00 0.00 74 1006.7
20260903215017 23 19 11.3 27.4 0.00 0.00 0.00 76 1006.8
20260903214516 23 34 14.5 27.4 0.00 0.00 0.00 77 1006.7
20260903214017 23 68 12.9 27.4 0.00 0.00 0.00 78 1006.7
20260903213517 23 68 12.9 24.1 0.00 0.00 0.00 79 1006.7
20260903213016 23 55 9.7 24.1 0.00 0.00 0.00 80 1006.8
20260903212516 22 21 9.7 29.0 0.00 0.00 0.00 82 1006.8
20260903212017 22 37 14.5 30.6 0.00 0.00 0.00 83 1006.7
20260903211516 22 60 17.7 30.6 0.00 0.00 0.00 84 1006.8
20260903211015 21 330 14.5 29.0 0.00 0.00 0.00 85 1006.9
20260903210515 21 350 12.9 32.2 0.00 0.00 0.00 87 1006.8
20260903210015 21 42 16.1 32.2 0.00 0.00 0.00 87 1006.8
20260903205514 21 115 12.9 38.6 0.00 0.00 0.00 87 1006.5
20260903205014 21 14 16.1 38.6 0.00 0.00 0.00 87 1006.5
20260903204513 21 51 16.1 46.7 0.00 0.00 0.00 85 1006.8
20260903204013 21 33 27.4 46.7 0.00 0.00 0.00 81 1006.9
20260903203511 22 46 16.1 40.2 0.00 0.00 0.00 78 1006.9
20260903203012 22 43 22.5 40.2 0.00 0.00 0.00 75 1007.0
20260903202511 23 301 12.9 35.4 0.00 0.00 0.00 75 1007.2
20260903202011 23 15 14.5 40.2 0.00 0.00 0.00 75 1007.0
20260903201511 24 335 14.5 40.2 0.00 0.00 0.00 72 1006.8
20260903201009 24 344 11.3 24.1 0.00 0.00 0.00 74 1006.8
20260903200509 23 16 12.9 48.3 0.00 0.00 0.00 71 1006.7
20260903200118 26 347 19.3 48.3 0.00 0.00 0.00 63 1006.7
20260903195508 31 333 4.8 12.9 0.00 0.00 0.00 61 1006.3
20260903195008 31 34 1.6 17.7 0.00 0.00 0.00 61 1005.7
20260903194508 31 30 6.4 25.7 0.00 0.00 0.00 60 1005.6
20260903194007 31 75 6.4 25.7 0.00 0.00 0.00 60 1005.4
20260903193508 31 138 6.4 22.5 0.00 0.00 0.00 59 1005.1
20260903193012 31 86 9.7 22.5 0.00 0.00 0.00 59 1004.9
20260903192508 31 94 6.4 22.5 0.00 0.00 0.00 60 1004.8
20260903192005 31 69 11.3 22.5 0.00 0.00 0.00 61 1004.8
20260903191517 31 105 6.4 19.3 0.00 0.00 0.00 61 1004.9
20260903191005 31 158 8.0 22.5 0.00 0.00 0.00 61 1005.0
20260903190505 31 79 9.7 22.5 0.00 0.00 0.00 61 1004.9
20260903190005 31 144 9.7 24.1 0.00 0.00 0.00 61 1004.9
20260903185504 31 86 12.9 24.1 0.00 0.00 0.00 61 1005.0
20260903185002 31 68 11.3 22.5 0.00 0.00 0.00 62 1005.0
20260903184501 30 117 11.3 20.9 0.00 0.00 0.00 62 1005.1
20260903184102 30 116 9.7 19.3 0.00 0.00 0.00 63 1005.2
20260903183559 30 72 8.0 24.1 0.00 0.00 0.00 63 1005.3
20260903183102 30 157 9.7 24.1 0.00 0.00 0.00 63 1005.4
20260903182558 30 125 8.0 24.1 0.00 0.00 0.00 64 1005.4
20260903182058 30 125 8.0 22.5 0.00 0.00 0.00 65 1005.5
20260903181556 30 5 11.3 22.5 0.00 0.00 0.00 65 1005.8
20260903181054 29 94 8.0 19.3 0.00 0.00 0.00 67 1005.8
20260903180556 29 43 9.7 27.4 0.00 0.00 0.00 67 1005.9
20260903180054 28 122 9.7 27.4 0.00 0.00 0.00 67 1006.1
20260903175554 29 54 11.3 22.5 0.00 0.00 0.00 67 1006.2
20260903175053 29 75 9.7 25.7 0.00 0.00 0.00 67 1006.1
20260903174553 29 101 11.3 25.7 0.00 0.00 0.00 67 1006.1
20260903174052 29 144 14.5 24.1 0.00 0.00 0.00 66 1006.1
20260903173552 29 142 9.7 22.5 0.00 0.00 0.00 66 1006.0
20260903173052 29 131 11.3 27.4 0.00 0.00 0.00 66 1006.0
20260903172552 29 109 14.5 27.4 0.00 0.00 0.00 66 1006.0
20260903172050 29 130 12.9 27.4 0.00 0.00 0.00 66 1006.0
20260903171604 28 168 12.9 29.0 0.00 0.00 0.00 67 1006.1
20260903171047 28 155 12.9 29.0 0.00 0.00 0.00 69 1006.1
20260903170546 28 171 11.3 20.9 0.00 0.00 0.00 69 1006.2
20260903170051 28 161 8.0 22.5 0.00 0.00 0.00 69 1006.4
20260903165544 28 161 8.0 22.5 0.00 0.00 0.00 70 1006.5
20260903165044 27 52 6.4 20.9 0.00 0.00 0.00 71 1006.5
20260903164541 27 116 9.7 20.9 0.00 0.00 0.00 71 1006.5
20260903164041 27 47 11.3 24.1 0.00 0.00 0.00 71 1006.6
20260903163540 27 123 11.3 29.0 0.00 0.00 0.00 72 1006.7
20260903163043 27 90 12.9 29.0 0.00 0.00 0.00 71 1006.7
20260903162539 27 98 14.5 27.4 0.00 0.00 0.00 71 1006.6
20260903162038 27 123 11.3 24.1 0.00 0.00 0.00 72 1006.5
20260903161537 26 110 12.9 22.5 0.00 0.00 0.00 74 1006.4
20260903161034 26 58 12.9 19.3 0.00 0.00 0.00 75 1006.7
20260903160534 26 112 8.0 17.7 0.00 0.00 0.00 74 1007.1
20260903160033 26 108 8.0 16.1 0.00 0.00 0.00 74 1007.1
20260903155536 26 142 4.8 14.5 0.00 0.00 0.00 73 1007.5
20260903155038 26 131 6.4 17.7 0.00 0.00 0.00 72 1007.6
20260903154533 26 96 8.0 17.7 0.00 0.00 0.00 72 1007.5
20260903154033 26 83 9.7 17.7 0.00 0.00 0.00 72 1007.6
20260903153529 26 92 6.4 20.9 0.00 0.00 0.00 73 1007.3
20260903153029 26 84 9.7 22.5 0.00 0.00 0.00 72 1007.2
20260903152527 26 97 12.9 22.5 0.00 0.00 0.00 73 1007.2
20260903152026 25 134 8.0 19.3 0.00 0.00 0.00 73 1007.3
20260903151525 25 83 9.7 22.5 0.00 0.00 0.00 73 1007.5
20260903151023 25 131 9.7 22.5 0.00 0.00 0.00 74 1007.4
20260903150522 24 91 11.3 22.5 0.00 0.00 0.00 75 1007.2
20260903150034 24 101 12.9 22.5 0.00 0.00 0.00 74 1007.3
20260903145520 24 103 8.0 19.3 0.00 0.00 0.00 74 1007.3
20260903145018 24 143 8.0 19.3 0.00 0.00 0.00 74 1007.5
20260903144517 24 114 6.4 19.3 0.00 0.00 0.00 74 1007.6
20260903144017 23 95 8.0 20.9 0.00 0.00 0.00 75 1007.7
20260903143514 23 101 9.7 20.9 0.00 0.00 0.00 75 1007.8
20260903143013 23 76 8.0 20.9 0.00 0.00 0.00 75 1007.8
20260903142512 23 69 8.0 22.5 0.00 0.00 0.00 75 1008.0
20260903142010 23 66 12.9 22.5 0.00 0.00 0.00 75 1007.9
20260903141511 23 19 9.7 20.9 0.00 0.00 0.00 75 1007.9
20260903141010 22 47 12.9 20.9 0.00 0.00 0.00 76 1008.0
20260903140507 22 68 8.0 20.9 0.00 0.00 0.00 76 1008.1
20260903140004 22 82 8.0 19.3 0.00 0.00 0.00 76 1008.1
20260903135507 22 108 11.3 19.3 0.00 0.00 0.00 76 1008.2
20260903135003 22 64 9.7 19.3 0.00 0.00 0.00 76 1008.2
20260903134502 22 100 11.3 19.3 0.00 0.00 0.00 76 1008.3
20260903134004 22 105 8.0 17.7 0.00 0.00 0.00 77 1008.5
20260903133604 22 72 6.4 16.1 0.00 0.00 0.00 77 1008.6
20260903133103 21 97 9.7 16.1 0.00 0.00 0.00 77 1008.6
20260903132558 21 65 6.4 14.5 0.00 0.00 0.00 77 1008.6
20260903132058 21 64 6.4 12.9 0.00 0.00 0.00 78 1008.5
20260903131607 21 100 4.8 14.5 0.00 0.00 0.00 78 1008.5
20260903131059 21 84 6.4 14.5 0.00 0.00 0.00 78 1008.4
20260903130555 21 86 8.0 16.1 0.00 0.00 0.00 78 1008.6
20260903130056 21 78 8.0 16.1 0.00 0.00 0.00 78 1008.6
20260903125555 21 80 8.0 11.3 0.00 0.00 0.00 77 1008.6
20260903125055 21 67 3.2 11.3 0.00 0.00 0.00 77 1008.6
20260903124606 21 32 4.8 16.1 0.00 0.00 0.00 78 1008.6
20260903124053 21 92 6.4 17.7 0.00 0.00 0.00 78 1008.5
20260903123551 20 96 8.0 17.7 0.00 0.00 0.00 78 1008.4
20260903123050 20 165 9.7 16.1 0.00 0.00 0.00 79 1008.3
20260903122549 20 63 6.4 16.1 0.00 0.00 0.00 79 1008.4
20260903122048 20 116 6.4 14.5 0.00 0.00 0.00 79 1008.5
20260903121547 20 73 6.4 16.1 0.00 0.00 0.00 79 1008.3
20260903121046 20 26 6.4 16.1 0.00 0.00 0.00 79 1008.5
20260903120545 20 75 6.4 14.5 0.00 0.00 0.00 79 1008.5
20260903120055 20 86 8.0 14.5 0.00 0.00 0.00 78 1008.4
20260903115543 20 98 8.0 14.5 0.00 0.00 0.00 78 1008.4
20260903115043 20 95 6.4 12.9 0.00 0.00 0.00 78 1008.6
20260903114543 20 96 3.2 12.9 0.00 0.00 0.00 78 1008.6
20260903114042 20 92 6.4 12.9 0.00 0.00 0.00 78 1008.7
20260903113545 20 102 6.4 12.9 0.00 0.00 0.00 77 1008.7
20260903113047 20 98 6.4 14.5 0.00 0.00 0.00 77 1008.8
20260903112543 20 126 4.8 12.9 0.00 0.00 0.00 77 1008.8
20260903112041 20 92 4.8 12.9 0.00 0.00 0.00 77 1008.8
20260903111540 20 111 8.0 12.9 0.00 0.00 0.00 77 1008.9
20260903111039 20 56 4.8 11.3 0.00 0.00 0.00 77 1009.0
20260903110538 20 97 4.8 11.3 0.00 0.00 0.00 77 1009.2
20260903110038 20 98 4.8 11.3 0.00 0.00 0.00 77 1009.2
20260903105541 20 96 4.8 9.7 0.00 0.00 0.00 77 1009.2
20260903105039 20 94 3.2 8.0 0.00 0.00 0.00 77 1009.1
20260903104539 20 79 3.2 9.7 0.00 0.00 0.00 77 1009.1
20260903104037 20 50 3.2 9.7 0.00 0.00 0.00 77 1009.0
20260903103537 20 74 4.8 9.7 0.00 0.00 0.00 78 1009.1
20260903103036 20 78 3.2 9.7 0.00 0.00 0.00 78 1009.2
20260903102536 20 63 4.8 9.7 0.00 0.00 0.00 78 1009.2
20260903102035 20 51 4.8 9.7 0.00 0.00 0.00 78 1009.3
20260903101544 19 92 3.2 9.7 0.00 0.00 0.00 78 1009.4
20260903101035 19 79 1.6 6.4 0.00 0.00 0.00 78 1009.4
20260903100535 19 81 3.2 8.0 0.00 0.00 0.00 78 1009.3
20260903100036 19 71 3.2 8.0 0.00 0.00 0.00 78 1009.2
20260903095534 19 82 3.2 6.4 0.00 0.00 0.00 78 1009.3
20260903095033 19 68 3.2 8.0 0.00 0.00 0.00 78 1009.3
20260903094533 19 60 3.2 8.0 0.00 0.00 0.00 78 1009.4
20260903094034 19 66 3.2 6.4 0.00 0.00 0.00 78 1009.5
20260903093532 19 57 1.6 6.4 0.00 0.00 0.00 78 1009.6
20260903093040 19 56 1.6 6.4 0.00 0.00 0.00 78 1009.7
20260903092531 19 58 1.6 6.4 0.00 0.00 0.00 78 1009.7
20260903092031 19 59 3.2 8.0 0.00 0.00 0.00 78 1009.7
20260903091530 19 53 1.6 4.8 0.00 0.00 0.00 78 1009.7
20260903091036 19 51 0.0 4.8 0.00 0.00 0.00 79 1009.7
20260903090531 19 51 1.6 4.8 0.00 0.00 0.00 78 1009.7
20260903090033 18 42 0.0 6.4 0.00 0.00 0.00 79 1009.8
20260903085529 18 63 3.2 6.4 0.00 0.00 0.00 79 1009.7
20260903085029 18 76 3.2 6.4 0.00 0.00 0.00 79 1009.7
20260903084533 19 107 3.2 6.4 0.00 0.00 0.00 79 1009.7
20260903084028 19 65 3.2 6.4 0.00 0.00 0.00 79 1009.8
20260903083528 19 80 3.2 6.4 0.00 0.00 0.00 79 1010.0
20260903083028 19 80 3.2 6.4 0.00 0.00 0.00 79 1009.9
20260903082526 19 69 3.2 6.4 0.00 0.00 0.00 79 1010.0
20260903082026 19 64 3.2 8.0 0.00 0.00 0.00 79 1010.1
20260903081526 19 55 3.2 8.0 0.00 0.00 0.00 79 1010.0
20260903081024 19 71 3.2 9.7 0.00 0.00 0.00 79 1010.1
20260903080524 18 96 4.8 6.4 0.00 0.00 0.00 80 1010.2
20260903080037 19 71 1.6 4.8 0.00 0.00 0.00 79 1010.3
20260903075522 19 64 1.6 4.8 0.00 0.00 0.00 79 1010.4
20260903075022 19 63 1.6 4.8 0.00 0.00 0.00 79 1010.5
20260903074521 19 64 1.6 6.4 0.00 0.00 0.00 79 1010.5
20260903074021 19 63 1.6 9.7 0.00 0.00 0.00 79 1010.5
20260903073520 19 103 3.2 9.7 0.00 0.00 0.00 79 1010.5
20260903073024 19 63 3.2 6.4 0.00 0.00 0.00 79 1010.5
20260903072520 19 57 3.2 9.7 0.00 0.00 0.00 79 1010.4
20260903072021 19 95 3.2 6.4 0.00 0.00 0.00 79 1010.4
20260903071520 19 86 3.2 8.0 0.00 0.00 0.00 79 1010.3
20260903071023 19 72 3.2 8.0 0.00 0.00 0.00 79 1010.5
20260903070517 19 81 3.2 6.4 0.00 0.00 0.00 79 1010.5
20260903070019 19 63 1.6 6.4 0.00 0.00 0.00 79 1010.6
20260903065517 19 60 3.2 6.4 0.00 0.00 0.00 79 1010.7
20260903065017 19 96 3.2 8.0 0.00 0.00 0.00 79 1010.6
20260903064517 19 68 4.8 8.0 0.00 0.00 0.00 79 1010.7
20260903064016 19 92 3.2 6.4 0.00 0.00 0.00 79 1010.7
20260903063515 19 77 1.6 6.4 0.00 0.00 0.00 79 1010.9
20260903063015 19 81 3.2 6.4 0.00 0.00 0.00 79 1011.0
20260903062515 19 84 1.6 6.4 0.00 0.00 0.00 79 1011.1
20260903062015 19 86 1.6 6.4 0.00 0.00 0.00 79 1011.1
20260903061516 19 87 3.2 6.4 0.00 0.00 0.00 79 1011.1
20260903061116 19 87 3.2 6.4 0.00 0.00 0.00 79 1011.2
20260903060513 19 72 1.6 9.7 0.00 0.00 0.00 79 1011.1
20260903060012 19 77 1.6 9.7 0.00 0.00 0.00 78 1011.1
20260903055512 19 91 3.2 9.7 0.00 0.00 0.00 78 1011.0
20260903055010 20 58 3.2 8.0 0.00 0.00 0.00 78 1011.0
20260903054512 20 68 4.8 9.7 0.00 0.00 0.00 77 1011.0
20260903054009 20 83 3.2 9.7 0.00 0.00 0.00 77 1010.9
20260903053509 20 88 3.2 9.7 0.00 0.00 0.00 76 1010.9
20260903053007 20 81 4.8 9.7 0.00 0.00 0.00 76 1011.0
20260903052506 20 71 3.2 8.0 0.00 0.00 0.00 75 1011.1
20260903052007 20 78 4.8 8.0 0.00 0.00 0.00 74 1011.2
20260903051507 20 74 3.2 8.0 0.00 0.00 0.00 74 1011.3
20260903051004 20 52 3.2 6.4 0.00 0.00 0.00 74 1011.3
20260903050602 20 88 1.6 6.4 0.00 0.00 0.00 73 1011.2
20260903050005 20 71 3.2 6.4 0.00 0.00 0.00 72 1011.3
20260903045502 20 48 1.6 6.4 0.00 0.00 0.00 72 1011.4
20260903045002 20 42 1.6 6.4 0.00 0.00 0.00 71 1011.3
20260903044505 21 65 1.6 6.4 0.00 0.00 0.00 71 1011.4
20260903044001 21 32 1.6 6.4 0.00 0.00 0.00 70 1011.4
20260903043501 21 49 1.6 6.4 0.00 0.00 0.00 70 1011.5
20260903043001 21 59 1.6 6.4 0.00 0.00 0.00 69 1011.5
20260903042500 21 47 1.6 6.4 0.00 0.00 0.00 69 1011.5
20260903042002 21 44 1.6 6.4 0.00 0.00 0.00 68 1011.5
20260903041612 21 37 0.0 4.8 0.00 0.00 0.00 68 1011.4
20260903041100 21 38 0.0 6.4 0.00 0.00 0.00 67 1011.4
20260903040600 21 35 3.2 6.4 0.00 0.00 0.00 67 1011.5
20260903040120 22 47 1.6 8.0 0.00 0.00 0.00 66 1011.5